GPS BIII-2 (PRN 18)

Last updated on July 6, 2021, 3:39 p.m. UTC

1 44506U 19056A   21186.59568187 -.00000082  00000-0  00000-0 0  9998
2 44506  55.4928  42.8761 0015742 173.2355  39.0379  2.00566279 13818
UTC
Height (km)
Latitude
Longitude
Inclination
Orbital Period
UTC large
Height (km)
Speed (km/s)
/
Latitude / Longitude
Inclination (degrees)
Orbital Period (minutes)
Azimuth
Elevation
Range (km)
Doppler Factor
iOS Compass Heading
iOS Angle